STARLINK-34302, 65216

Orbit data source: Space-Track

STARLINK-34302, 65216 is a payload satellite owned by SpaceX/Seattle (US) in LEO that was launched on Thu, 14 Aug 2025 UTC via an FALCON 9 launch vehicle from the Air Force Eastern Test Range (AFETR). Payload-class satellites include a variety of spacecraft equipped with specific instruments for various scientific and technological missions. These include communications satellites like Starlink; space stations such as the ISS; scientific satellites like the Hubble; Earth observation satellites from companies like Planet Labs, Umbra, and HawkEye 360; GPS; miniature CubeSats for education and research; and military/defense satellites.

Loading next visibility...
Identifier
65216, 2025-176U
Orbit
LEO
Country
Flag of USUS
Related business
Manufacturer
SpaceX/Seattle
Mission
Operational Commercial Communications
Bus & Motor
STARLINK V2MO, Unknown motor
Mass
575 kg wet, ~530 kg dry
Launch date (UTC)
2025-08-14 (10 months ago)
Launch vehicle
FALCON 9
Launch site
Air Force Eastern Test Range (AFETR)
Object type
Payload
Rocket body
Debris
Shape & HBR
Box + 2 Pan, 17.7 m
Radar Cross Section
36.964 m², Large (>1 m²)

Expand to show TLE details & history
Last TLE update: 13 hours ago

TLE from 13 hours ago
0 STARLINK-34302
1 65216U 25176U   26171.32266285  .00021371  00000-0  64185-3 0  9993
2 65216  53.1589  34.6170 0003271  80.2547 279.8825 15.34396475 48856
Epoch: 2026-06-20T07:44Z
TLE epoch observation values (Epoch: 2026-06-20T07:44:38.070Z)
Latitude
-0°
Longitude
9.91943°
Altitude
463.232 km
Speed
7.636 km/s
True Right ascension
02h 18m 28s
True Declination
0° 00' 00"
Sunlit
Object was in daylight at epoch
Visualization orbit readout
Latitude
Unknown
Longitude
Unknown
Altitude
Unknown
Speed
Unknown
Apparent Right ascension
Unknown
Apparent Declination
Unknown
Sunlit
N/A
Visualization observer readout
Local Sidereal Time
07:22:52
Azimuth
Unknown
Elevation
Unknown
Doppler factor
Unknown
Orbital elements
Apogee altitude
465.209 km
Perigee altitude
460.733 km
Semi-major axis
6,841.108 km
Eccentricity
0.00033
Inclination
53.1589°
RAAN
34.617°
Arg. of periapsis
80.2547°
True anomaly
279.84557°
Mean anomaly
279.8825°
Eccentric anomaly
279.86404°
Mean motion
3.83578 °/min
Orbital period
93.85 mins
BSTAR
0.00064185
Loading maneuver chart data...
Computing Atmospheric mass density...
Loading historical data...
Loading historical data...
Loading historical data...
Loading historical data...
Loading historical data...
Loading historical data...
Loading historical data...

Documentation

Showing up to 5 results
|